TimeCDT,TemperatureF,Dew PointF,Humidity,Sea Level PressureIn,VisibilityMPH,Wind Direction,Wind SpeedMPH,Gust SpeedMPH,PrecipitationIn,Events,Conditions,WindDirDegrees,DateUTC
12:15 AM,48.0,47.1,97,30.10,10.0,Calm,Calm,-,N/A,,Clear,0,2013-09-15 05:15:00
12:35 AM,47.3,46.0,95,30.10,10.0,Calm,Calm,-,N/A,,Clear,0,2013-09-15 05:35:00
12:55 AM,47.1,46.6,98,30.10,10.0,Calm,Calm,-,N/A,,Clear,0,2013-09-15 05:55:00
1:15 AM,46.6,46.0,98,30.09,7.0,Calm,Calm,-,N/A,,Clear,0,2013-09-15 06:15:00
1:35 AM,46.4,45.9,98,30.09,10.0,Calm,Calm,-,N/A,,Clear,0,2013-09-15 06:35:00
1:55 AM,46.8,45.9,97,30.10,10.0,Calm,Calm,-,N/A,,Clear,0,2013-09-15 06:55:00
2:15 AM,46.8,46.4,99,30.09,10.0,Calm,Calm,-,N/A,,Clear,0,2013-09-15 07:15:00
2:35 AM,46.9,46.6,99,30.09,10.0,Calm,Calm,-,N/A,,Clear,0,2013-09-15 07:35:00
2:55 AM,46.2,46.2,100,30.09,10.0,Calm,Calm,-,N/A,,Clear,0,2013-09-15 07:55:00
3:15 AM,46.2,46.0,99,30.09,5.0,Calm,Calm,-,N/A,,Clear,0,2013-09-15 08:15:00
3:35 AM,46.4,46.4,100,30.09,10.0,Calm,Calm,-,N/A,,Clear,0,2013-09-15 08:35:00
3:55 AM,46.4,46.4,100,30.09,10.0,Calm,Calm,-,N/A,,Clear,0,2013-09-15 08:55:00
4:15 AM,46.4,46.0,99,30.09,10.0,Calm,Calm,-,N/A,,Clear,0,2013-09-15 09:15:00
4:35 AM,45.7,44.8,97,30.09,10.0,Calm,Calm,-,N/A,,Clear,0,2013-09-15 09:35:00
4:55 AM,45.5,44.2,95,30.09,10.0,Calm,Calm,-,N/A,,Clear,0,2013-09-15 09:55:00
5:15 AM,45.9,45.1,97,30.08,10.0,Calm,Calm,-,N/A,,Clear,0,2013-09-15 10:15:00
5:35 AM,45.9,45.5,99,30.09,10.0,Calm,Calm,-,N/A,,Clear,0,2013-09-15 10:35:00
5:55 AM,44.8,44.6,99,30.09,10.0,Calm,Calm,-,N/A,,Clear,0,2013-09-15 10:55:00
6:15 AM,44.2,44.2,100,30.09,4.0,Calm,Calm,-,N/A,,Clear,0,2013-09-15 11:15:00
6:35 AM,43.9,43.9,100,30.09,7.0,Calm,Calm,-,N/A,,Clear,0,2013-09-15 11:35:00
6:55 AM,43.9,43.9,100,30.10,0.2,Calm,Calm,-,N/A,Fog,Fog,0,2013-09-15 11:55:00
7:15 AM,45.5,45.5,100,30.10,10.0,Calm,Calm,-,N/A,,Clear,0,2013-09-15 12:15:00
7:35 AM,49.5,49.5,100,30.11,4.0,Calm,Calm,-,N/A,,Clear,0,2013-09-15 12:35:00
7:55 AM,52.0,52.0,100,30.12,10.0,Calm,Calm,-,N/A,,Clear,0,2013-09-15 12:55:00
8:15 AM,53.8,53.6,99,30.11,10.0,Calm,Calm,-,N/A,,Clear,0,2013-09-15 13:15:00
8:35 AM,57.2,54.0,89,30.11,10.0,Calm,Calm,-,N/A,,Clear,0,2013-09-15 13:35:00
8:55 AM,60.3,52.9,77,30.12,10.0,Calm,Calm,-,N/A,,Clear,0,2013-09-15 13:55:00
9:15 AM,62.4,53.2,72,30.12,10.0,South,3.5,-,N/A,,Clear,190,2013-09-15 14:15:00
9:35 AM,63.7,53.2,69,30.12,10.0,South,3.5,-,N/A,,Clear,190,2013-09-15 14:35:00
9:55 AM,65.8,54.5,67,30.13,10.0,Calm,Calm,-,N/A,,Clear,0,2013-09-15 14:55:00
10:15 AM,68.9,54.3,60,30.13,10.0,SSW,5.8,-,N/A,,Clear,200,2013-09-15 15:15:00
10:35 AM,69.8,53.4,56,30.12,10.0,SSW,5.8,-,N/A,,Clear,210,2013-09-15 15:35:00
10:55 AM,71.6,52.5,51,30.12,10.0,SSW,6.9,-,N/A,,Clear,210,2013-09-15 15:55:00
11:15 AM,72.5,51.6,48,30.12,10.0,South,8.1,16.1,N/A,,Clear,190,2013-09-15 16:15:00
11:35 AM,72.9,51.6,47,30.12,10.0,SSW,8.1,-,N/A,,Clear,210,2013-09-15 16:35:00
11:55 AM,74.1,51.8,46,30.11,10.0,Calm,Calm,-,N/A,,Clear,0,2013-09-15 16:55:00
12:15 PM,74.5,52.5,46,30.10,10.0,South,3.5,-,N/A,,Clear,190,2013-09-15 17:15:00
12:35 PM,75.2,51.1,43,30.10,10.0,SSW,6.9,-,N/A,,Clear,210,2013-09-15 17:35:00
12:55 PM,75.7,50.4,41,30.09,10.0,SSW,6.9,-,N/A,,Clear,210,2013-09-15 17:55:00
1:15 PM,76.3,49.3,39,30.09,10.0,WSW,8.1,-,N/A,,Clear,250,2013-09-15 18:15:00
1:35 PM,77.4,50.5,39,30.09,10.0,South,4.6,-,N/A,,Clear,180,2013-09-15 18:35:00
1:55 PM,77.9,46.9,33,30.08,10.0,SSW,9.2,-,N/A,,Clear,210,2013-09-15 18:55:00
2:15 PM,79.0,48.2,34,30.07,10.0,SSW,9.2,-,N/A,,Clear,210,2013-09-15 19:15:00
2:35 PM,79.5,48.2,33,30.07,10.0,SW,8.1,-,N/A,,Clear,230,2013-09-15 19:35:00
2:55 PM,79.9,48.9,34,30.07,10.0,West,8.1,-,N/A,,Clear,260,2013-09-15 19:55:00
3:15 PM,79.2,48.4,34,30.06,10.0,SW,9.2,-,N/A,,Clear,220,2013-09-15 20:15:00
3:35 PM,79.9,48.4,33,30.06,10.0,SW,6.9,-,N/A,,Clear,230,2013-09-15 20:35:00
3:55 PM,79.9,48.4,33,30.06,10.0,SSW,8.1,16.1,N/A,,Clear,210,2013-09-15 20:55:00
4:15 PM,80.6,49.3,33,30.05,10.0,SW,11.5,-,N/A,,Clear,220,2013-09-15 21:15:00
4:35 PM,79.9,48.2,33,30.06,10.0,SW,10.4,-,N/A,,Clear,230,2013-09-15 21:35:00
4:55 PM,79.9,48.2,33,30.06,10.0,SW,9.2,-,N/A,,Clear,230,2013-09-15 21:55:00
5:15 PM,79.7,48.2,33,30.07,10.0,SW,9.2,16.1,N/A,,Clear,220,2013-09-15 22:15:00
5:35 PM,79.3,49.1,35,30.07,10.0,SSW,8.1,-,N/A,,Clear,200,2013-09-15 22:35:00
5:55 PM,78.6,49.1,35,30.06,10.0,SSW,8.1,-,N/A,,Clear,200,2013-09-15 22:55:00
6:15 PM,77.5,51.3,40,30.06,10.0,SSW,6.9,-,N/A,,Scattered Clouds,200,2013-09-15 23:15:00
6:35 PM,75.9,52.7,44,30.06,10.0,SSW,4.6,-,N/A,,Clear,200,2013-09-15 23:35:00
6:55 PM,74.3,53.1,47,30.06,10.0,South,4.6,-,N/A,,Clear,190,2013-09-15 23:55:00
7:15 PM,72.5,52.9,50,30.05,10.0,South,5.8,-,N/A,,Clear,180,2013-09-16 00:15:00
7:35 PM,71.8,52.9,51,30.05,10.0,South,5.8,-,N/A,,Clear,190,2013-09-16 00:35:00
7:55 PM,71.2,52.9,52,30.05,10.0,South,4.6,-,N/A,,Clear,190,2013-09-16 00:55:00
8:15 PM,70.9,53.1,53,30.05,10.0,SSW,3.5,-,N/A,,Clear,200,2013-09-16 01:15:00
8:35 PM,68.2,54.0,60,30.06,10.0,Calm,Calm,-,N/A,,Clear,0,2013-09-16 01:35:00
8:55 PM,66.9,54.3,64,30.06,10.0,Calm,Calm,-,N/A,,Clear,0,2013-09-16 01:55:00
9:15 PM,65.3,55.9,72,30.07,10.0,NNW,3.5,-,N/A,,Clear,330,2013-09-16 02:15:00
9:35 PM,65.8,55.9,70,30.07,10.0,Calm,Calm,-,N/A,,Clear,0,2013-09-16 02:35:00
9:55 PM,64.9,57.7,77,30.08,10.0,Calm,Calm,-,N/A,,Clear,0,2013-09-16 02:55:00
10:15 PM,63.9,57.6,80,30.08,10.0,Calm,Calm,-,N/A,,Clear,0,2013-09-16 03:15:00
10:35 PM,64.6,58.1,79,30.09,10.0,Calm,Calm,-,N/A,,Clear,0,2013-09-16 03:35:00
10:55 PM,64.6,57.6,78,30.08,10.0,Calm,Calm,-,N/A,,Clear,0,2013-09-16 03:55:00
11:15 PM,64.9,57.9,78,30.09,10.0,Calm,Calm,-,N/A,,Scattered Clouds,0,2013-09-16 04:15:00
11:35 PM,65.3,58.8,80,30.09,7.0,Calm,Calm,-,N/A,,Overcast,0,2013-09-16 04:35:00
11:55 PM,65.8,58.6,78,30.09,10.0,Calm,Calm,-,N/A,,Mostly Cloudy,0,2013-09-16 04:55:00